TIANTONG-1 1 (41725 NORAD) Tracking and Keplerian Element Data

This shows tracking and keplerian element data for the satellite.

Feedback or suggestion? Click here.




ElementValue
Catalog41725
NameTIANTONG-1 1
Epoch Orbit852
Epoch Day323.24107331
Epoch Year2018
RAAN327.2585
Inclination3.8343
Eccentricity0.0004873
Argument of Perigee338.6541
Mean Anonmoly300.558
Mean Motion1.00271247
Decay Rate-3.13E-06
L11 41725U 16048A 18323.24107331 -.00000313 00000-0 00000+0 0 9993
L22 41725 3.8343 327.2585 0004873 338.6541 300.5580 1.00271247 8526

Live tracking and technical data element details for TIANTONG-1 1 (NORAD 41725). TIANTONG-1 1 can be tracked NOW for your location showing map with azimuth and elevation plus other details from your city location.

Track the satellite on the map from your city or location and see movement details for azimuth, elevation, latitude, longitude, range, height, and movement on the map or in text.







IsCatalogInMostPopularTable: catalog: 41725, numindb: 222
Update: records affected: 1



GetName: 41725 TIANTONG-1 1

Hit Count: updated at: Mon, 19 Nov 2018 11:08:15 GMT